NJE4R ENTC-EETN

Flight info

Callsign NJE4R
Flight time N/A
Altitude 39000
Route MOKAX P853 RIXEM DCT ENOXI DCT SUTEV DCT AMASU DCT DOBAN
Aircraft CL60/M-SBDE1E2E3FGHIJ1J4J5J7M3RWXYZ/LB1V1D1

Departure

Time 2026-05-05 15:22
Airport Tromsø Airport (ENTC)

Arrival

Time N/A
Airport Lennart Meri Tallinn Airport (EETN)
Time Latitude Longitude Altitude Speed Heading
2026-05-05 15:19 69.68102 18.91240 1 ft 9 kts 135°
2026-05-05 15:19 69.68030 18.91313 1 ft 11 kts 195°
2026-05-05 15:20 69.67947 18.91246 4 ft 12 kts 193°
2026-05-05 15:20 69.67860 18.91187 7 ft 13 kts 193°
2026-05-05 15:20 69.67768 18.91133 9 ft 14 kts 193°
2026-05-05 15:20 69.67674 18.91067 8 ft 10 kts 189°
2026-05-05 15:21 69.67628 18.91228 8 ft 13 kts 104°
2026-05-05 15:21 69.67618 18.91410 9 ft 6 kts 51°
2026-05-05 15:21 69.67880 18.91589 4 ft 93 kts 12°
2026-05-05 15:21 69.68763 18.92138 413 ft 148 kts 12°
2026-05-05 15:22 69.69694 18.92717 1688 ft 140 kts 11°
2026-05-05 15:22 69.70650 18.93222 2599 ft 157 kts
2026-05-05 15:22 69.71760 18.93773 3605 ft 170 kts
2026-05-05 15:22 69.72971 18.94545 4568 ft 195 kts 14°
2026-05-05 15:23 69.74393 18.95586 5385 ft 228 kts 14°
2026-05-05 15:23 69.75943 18.96995 6186 ft 243 kts 27°
2026-05-05 15:23 69.77238 19.00071 7034 ft 246 kts 54°
2026-05-05 15:23 69.77879 19.04633 7845 ft 250 kts 82°
2026-05-05 15:24 69.77711 19.09632 8681 ft 256 kts 101°
2026-05-05 15:24 69.77299 19.14644 9508 ft 259 kts 101°
2026-05-05 15:24 69.76857 19.19625 10306 ft 263 kts 108°
2026-05-05 15:24 69.75938 19.24302 10990 ft 273 kts 129°
2026-05-05 15:25 69.74442 19.27636 11632 ft 279 kts 154°
2026-05-05 15:25 69.72484 19.28900 12280 ft 304 kts 181°
2026-05-05 15:25 69.70325 19.27809 12918 ft 329 kts 193°
2026-05-05 15:25 69.68027 19.26205 13538 ft 352 kts 193°
2026-05-05 15:26 69.65580 19.24525 14164 ft 369 kts 194°
2026-05-05 15:26 69.63072 19.22809 14794 ft 374 kts 194°
2026-05-05 15:26 69.60564 19.21100 15421 ft 374 kts 194°
2026-05-05 15:26 69.58041 19.19554 16040 ft 375 kts 188°
2026-05-05 15:27 69.55434 19.19661 16680 ft 379 kts 171°
2026-05-05 15:27 69.52889 19.22051 17334 ft 386 kts 154°
2026-05-05 15:27 69.50536 19.25746 18165 ft 393 kts 151°
2026-05-05 15:27 69.48151 19.29550 19125 ft 395 kts 151°
2026-05-05 15:28 69.45777 19.33313 20016 ft 397 kts 151°
2026-05-05 15:28 69.43340 19.37163 20851 ft 401 kts 151°
2026-05-05 15:28 69.40916 19.40982 21638 ft 405 kts 151°
2026-05-05 15:28 69.38440 19.44869 22458 ft 409 kts 151°
2026-05-05 15:29 69.35947 19.48772 23232 ft 414 kts 151°
2026-05-05 15:29 69.33418 19.52721 23946 ft 418 kts 151°
2026-05-05 15:29 69.30885 19.56664 24646 ft 421 kts 151°
2026-05-05 15:29 69.28304 19.60668 25280 ft 422 kts 151°
2026-05-05 15:30 69.25732 19.64648 25585 ft 417 kts 151°
2026-05-05 15:30 69.23209 19.68542 25845 ft 408 kts 152°
2026-05-05 15:30 69.20752 19.72322 26052 ft 402 kts 152°
2026-05-05 15:30 69.18318 19.76057 26209 ft 397 kts 152°
2026-05-05 15:31 69.15916 19.79734 26439 ft 393 kts 152°
2026-05-05 15:31 69.13518 19.83393 26666 ft 392 kts 152°
2026-05-05 15:31 69.11129 19.87030 26852 ft 392 kts 152°
2026-05-05 15:31 69.08737 19.90662 26972 ft 391 kts 152°
2026-05-05 15:32 69.06341 19.94227 27020 ft 391 kts 153°
2026-05-05 15:32 69.03921 19.97682 27038 ft 390 kts 153°
2026-05-05 15:32 69.01549 20.01055 27163 ft 388 kts 153°
2026-05-05 15:32 68.99138 20.04475 27350 ft 387 kts 153°
2026-05-05 15:33 68.96750 20.07856 27631 ft 386 kts 153°
2026-05-05 15:33 68.94357 20.11236 27933 ft 386 kts 153°
2026-05-05 15:33 68.91960 20.14613 28231 ft 387 kts 153°
2026-05-05 15:33 68.89571 20.17971 28654 ft 384 kts 153°
2026-05-05 15:34 68.87167 20.21345 29140 ft 383 kts 153°
2026-05-05 15:34 68.84795 20.24662 29595 ft 384 kts 154°
2026-05-05 15:34 68.82890 20.27325 29936 ft 386 kts 154°